Regional Weather Roundup
Issued by NWS Binghamton, NY

Home | Current Version | Previous Version | Text Only | Print | Product List | Glossary On
Versions: 1 2 3 4 5 6 7 8 9 10 11 12 13 14 15 16 17 18 19 20 21 22 23 24 25 26 27 28 29 30 31 32 33 34 35 36 37 38 39 40 41 42 43 44 45 46 47 48 49 50
000
ASUS41 KBGM 270510
RWRBGM

REGIONAL WEATHER ROUNDUP
NATIONAL WEATHER SERVICE BINGHAMTON NY
100 AM EDT TUE JUN 27 2017

Note: "fair" indicates few or no clouds below 12,000 feet with no
significant weather and/or obstructions to visibility.

* = Station(s) that does not report precipitation, such as rain,
snow, etc, also no thunder or fog.

NYZ009-015>018-022>025-036-037-044>046-055>057-062-270600
...Central New York...

CITY           SKY/WX    TMP DP  RH WIND       PRES   REMARKS
Binghamton     CLOUDY    53  51  93 SW6       30.01S
Cortland       FAIR      52  52 100 CALM      30.00S
Dansville      CLEAR     53  50  89 S3        29.99F
Elmira         MOCLDY    54  54 100 CALM      30.00S
Seneca Falls   CLEAR     57  54  88 SW5       29.99S
Ithaca         CLOUDY    55  53  93 CALM      30.01R
Hamilton       CLOUDY    54  52  94 CALM      30.01S
Hornell        PTCLDY    50  48  93 SE5       30.03F
Monticello     PTCLDY    55  52  88 CALM      30.04F
Norwich        MOCLDY    54  52  94 CALM      30.01F
Penn Yan       PTCLDY    56  50  80 S7        30.00R
Rome           MOCLDY    55  54  96 E6        29.99F
Sidney         PTCLDY   N/A N/A N/A CALM      30.01F
Syracuse       PTCLDY    58  53  84 CALM      29.97R
$$

PAZ038>040-043-044-047-048-072-270600
...Northeast Pennsylvania...

CITY           SKY/WX    TMP DP  RH WIND       PRES   REMARKS
Hazleton         N/A     52  48  87 CALM      30.06F FOG
Scranton       MOCLDY    58  55  90 VRB3      30.02F
$$
&&
KEY
WCI = Wind Chill Index
VSB = Visibility
HX  = Heat Index
$$



USA.gov is the U.S. government's official web portal to all federal, state and local government web resources and services.